Location: Augustenthal
(51.7167°N, 10.2833°E)
Time: 07:11:08
(UTC+00:00)

DNEPR-1 R/B - Pass Details

Date: 18 May 2021
Orbit: 587 x 1334 km, 64.6° (Epoch: 15 June)

Event Time Altitude Azimuth Distance (km) Brightness Sun altitude
Rises 21:22:28 0° 229° (SW) 3,557 7.3 -14.4°
Reaches altitude 10° 21:25:13 10° 232° (SW) 2,496 6.5 -14.6°
Maximum altitude 21:30:51 69° 315° (NW) 802 4.3 -15.0°
Drops below altitude 10° 21:35:34 10° 40° (NE) 2,098 6.6 -15.3°
Sets 21:37:43 0° 43° (NE) 2,948 7.4 -15.4°
